M I D A S
Marine Information and Data Acquisition System
Tripno 186 of the Zeeleeuw from 2001-12-17 07:15:00 to 2001-12-17 13:50:14
Back to CruiseResearch ActivitiesStationsMapUnderway DataData graphs

EquipmentUnitsComment
TimeDGPSUTC
LatitudeDGPSDM.mWGS84
LongitudeDGPSDM.mWGS84
TemperatureSBE03/SBE38deg celciusITS90
ConductivitySBE21S/mITS90
SalinitySBE21 Practical Salinity Units
ChlorophylAChelsea fluorimeterg/lCalibrated in Aceton
Missing or incorrect values are displayed as -999
Sea surface data collected by the RV Zeeleeuw from 2001-12-17 07:15:00 to 2001-12-17 13:50:14
                                                                                    Next 1000 lines
Time Latitude Longitude Temperature Conductivity Salinity ChlorophylA
2001-12-17 07:48:12 51°13.687 2°55.904 11.684342 0.000176 0.007822  
2001-12-17 07:48:17 51°13.687 2°55.904 11.683702 0.000176 0.007822  
2001-12-17 07:48:22 51°13.687 2°55.904 11.683702 0.000176 0.007822  
2001-12-17 07:48:27 51°13.686 2°55.904 11.682468 0.000176 0.007822  
2001-12-17 07:48:32 51°13.686 2°55.904 11.680457 0.000176 0.007822  
2001-12-17 07:48:36 51°13.686 2°55.904 11.679359 0.000176 0.007822  
2001-12-17 07:48:39 51°13.686 2°55.904 11.683565 0.000275 0.008145  
2001-12-17 07:48:42 51°13.686 2°55.904 11.684388 0.000176 0.007821  
2001-12-17 07:48:47 51°13.686 2°55.905 11.684388 0.000176 0.007821  
2001-12-17 07:48:52 51°13.686 2°55.905 11.687451 0.000176 0.007821  
2001-12-17 07:48:57 51°13.687 2°55.905 11.685348 0.000176 0.007821  
2001-12-17 07:49:02 51°13.687 2°55.905 11.683748 0.000176 0.007821  
2001-12-17 07:49:07 51°13.687 2°55.905 11.682468 0.000176 0.007821  
2001-12-17 07:49:12 51°13.687 2°55.905 11.683565 0.000176 0.007821  
2001-12-17 07:49:17 51°13.687 2°55.905 11.683565 0.000176 0.007821  
2001-12-17 07:49:22 51°13.687 2°55.905 11.680228 0.000176 0.007821  
2001-12-17 07:49:27 51°13.687 2°55.905 11.678171 0.000176 0.007821  
2001-12-17 07:49:32 51°13.687 2°55.905 11.677714 0.000176 0.007821  
2001-12-17 07:49:37 51°13.687 2°55.905 11.677714 0.000176 0.007821  
2001-12-17 07:49:42 51°13.687 2°55.905 11.677165 0.000176 0.007821  
2001-12-17 07:49:47 51°13.687 2°55.905 11.677165 0.000176 0.007821  
2001-12-17 07:49:52 51°13.687 2°55.905 11.677805 0.000176 0.00782  
2001-12-17 07:49:57 51°13.687 2°55.905 11.681097 0.000176 0.00782  
2001-12-17 07:50:01 51°13.687 2°55.905 11.679359 0.000176 0.00782  
2001-12-17 07:50:07 51°13.687 2°55.905 11.682971 0.000176 0.00782  
2001-12-17 07:50:12 51°13.687 2°55.905 11.681874 0.000176 0.00782  
2001-12-17 07:50:17 51°13.688 2°55.905 11.681874 0.000176 0.00782  
2001-12-17 07:50:22 51°13.688 2°55.905 11.683565 0.000176 0.007819  
2001-12-17 07:50:27 51°13.688 2°55.905 11.679725 0.000176 0.007819  
2001-12-17 07:50:32 51°13.688 2°55.905 11.684251 0.000176 0.007819  
2001-12-17 07:50:37 51°13.688 2°55.905 11.680365 0.000176 0.007819  
2001-12-17 07:50:41 51°13.688 2°55.905 11.682971 0.000176 0.007818  
2001-12-17 07:50:47 51°13.688 2°55.905 11.682971 0.000176 0.007818  
2001-12-17 07:50:52 51°13.688 2°55.905 11.68448 0.000176 0.007818  
2001-12-17 07:50:57 51°13.688 2°55.904 11.68448 0.000176 0.007818  
2001-12-17 07:51:02 51°13.688 2°55.904 11.684845 0.000176 0.007817  
2001-12-17 07:51:07 51°13.688 2°55.904 11.685622 0.000176 0.007817  
2001-12-17 07:51:12 51°13.688 2°55.904 11.683474 0.000176 0.007817  
2001-12-17 07:51:17 51°13.688 2°55.904 11.683474 0.000176 0.007817  
2001-12-17 07:51:21 51°13.688 2°55.904 11.682377 0.000176 0.007816  
2001-12-17 07:51:27 51°13.688 2°55.904 11.683748 0.000176 0.007816  
2001-12-17 07:51:32 51°13.688 2°55.904 11.682742 0.000176 0.007816  
2001-12-17 07:51:37 51°13.688 2°55.904 11.681325 0.000176 0.007815  
2001-12-17 07:51:42 51°13.688 2°55.904 11.680045 0.000176 0.007815  
2001-12-17 07:51:47 51°13.688 2°55.904 11.680045 0.000176 0.007815  
2001-12-17 07:51:52 51°13.688 2°55.904 11.679588 0.000176 0.007814  
2001-12-17 07:51:57 51°13.688 2°55.904 11.679999 0.000176 0.007814  
2001-12-17 07:52:02 51°13.688 2°55.904 11.681828 0.000176 0.007814  
2001-12-17 07:52:07 51°13.688 2°55.904 11.685348 0.000176 0.007813  
2001-12-17 07:52:12 51°13.688 2°55.904 11.686079 0.000176 0.007813  
2001-12-17 07:52:17 51°13.688 2°55.905 11.686079 0.000176 0.007813  
2001-12-17 07:52:21 51°13.689 2°55.905 11.686262 0.000176 0.007813  
2001-12-17 07:52:27 51°13.689 2°55.905 11.689919 0.000176 0.007812  
2001-12-17 07:52:32 51°13.689 2°55.905 11.689188 0.000176 0.007811  
2001-12-17 07:52:37 51°13.688 2°55.905 11.688319 0.000176 0.007811  
2001-12-17 07:52:42 51°13.689 2°55.905 11.685211 0.000176 0.00781  
2001-12-17 07:52:47 51°13.688 2°55.905 11.685211 0.000176 0.00781  
2001-12-17 07:52:52 51°13.688 2°55.905 11.684937 0.000176 0.007809  
2001-12-17 07:52:56 51°13.688 2°55.905 11.681737 0.000176 0.007809  
2001-12-17 07:53:01 51°13.689 2°55.905 11.680959 0.000176 0.007809  
2001-12-17 07:53:07 51°13.688 2°55.905 11.679497 0.000176 0.007808  
2001-12-17 07:53:12 51°13.688 2°55.905 11.674925 0.000176 0.007807  
2001-12-17 07:53:17 51°13.689 2°55.905 11.674925 0.000176 0.007807  
2001-12-17 07:53:22 51°13.689 2°55.905 11.67433 0.000176 0.007807  
2001-12-17 07:53:27 51°13.689 2°55.905 11.674102 0.000176 0.007806  
2001-12-17 07:53:32 51°13.689 2°55.905 11.677851 0.000176 0.007806  
2001-12-17 07:53:37 51°13.689 2°55.905 11.676525 0.000176 0.007805  
2001-12-17 07:53:41 51°13.689 2°55.905 11.674285 0.000176 0.007805  
2001-12-17 07:53:46 51°13.689 2°55.905 11.674285 0.000176 0.007805  
2001-12-17 07:53:51 51°13.689 2°55.905 11.675793 0.000176 0.007804  
2001-12-17 07:53:57 51°13.689 2°55.905 11.676479 0.000176 0.007803  
2001-12-17 07:54:01 51°13.689 2°55.905 11.676525 0.000176 0.007803  
2001-12-17 07:54:07 51°13.689 2°55.905 11.67337 0.000176 0.007802  
2001-12-17 07:54:12 51°13.689 2°55.905 11.676616 0.000176 0.007801  
2001-12-17 07:54:17 51°13.689 2°55.905 11.676616 0.000176 0.007801  
2001-12-17 07:54:22 51°13.689 2°55.905 11.674147 0.000176 0.007801  
2001-12-17 07:54:27 51°13.689 2°55.905 11.671816 0.000176 0.0078  
2001-12-17 07:54:32 51°13.689 2°55.905 11.67529 0.000176 0.0078  
2001-12-17 07:54:37 51°13.689 2°55.905 11.677759 0.000176 0.007799  
2001-12-17 07:54:41 51°13.689 2°55.905 11.673233 0.000176 0.007799  
2001-12-17 07:54:47 51°13.689 2°55.905 11.673233 0.000176 0.007799  
2001-12-17 07:54:52 51°13.689 2°55.905 11.67465 0.000176 0.007798  
2001-12-17 07:54:56 51°13.689 2°55.905 11.676616 0.000176 0.007797  
2001-12-17 07:55:02 51°13.689 2°55.905 11.67241 0.000275 0.008121  
2001-12-17 07:55:07 51°13.689 2°55.904 11.672273 0.000176 0.007796  
2001-12-17 07:55:11 51°13.689 2°55.904 11.675016 0.000176 0.007796  
2001-12-17 07:55:16 51°13.689 2°55.905 11.675016 0.000176 0.007796  
2001-12-17 07:55:22 51°13.689 2°55.904 11.67337 0.000176 0.007795  
2001-12-17 07:55:27 51°13.689 2°55.904 11.67273 0.000176 0.007794  
2001-12-17 07:55:31 51°13.689 2°55.904 11.675976 0.000176 0.007793  
2001-12-17 07:55:36 51°13.689 2°55.904 11.676753 0.000176 0.007793  
2001-12-17 07:55:42 51°13.689 2°55.904 11.678491 0.000176 0.007792  
2001-12-17 07:55:47 51°13.689 2°55.904 11.678491 0.000176 0.007792  
2001-12-17 07:55:52 51°13.689 2°55.904 11.675793 0.000176 0.007791  
2001-12-17 07:55:57 51°13.689 2°55.904 11.67081 0.000176 0.007791  
2001-12-17 07:56:01 51°13.689 2°55.904 11.670124 0.000176 0.00779  
2001-12-17 07:56:07 51°13.689 2°55.904 11.670535 0.000176 0.00779  
2001-12-17 07:56:12 51°13.689 2°55.904 11.673142 0.000176 0.007789  
2001-12-17 07:56:16 51°13.689 2°55.904 11.673142 0.000176 0.007789  
2001-12-17 07:56:22 51°13.689 2°55.905 11.673233 0.000176 0.007788  
2001-12-17 07:56:27 51°13.689 2°55.905 11.679359 0.000176 0.007788  
2001-12-17 07:56:31 51°13.689 2°55.905 11.676479 0.000176 0.007787  
2001-12-17 07:56:37 51°13.689 2°55.905 11.678262 0.000176 0.007786  
2001-12-17 07:56:41 51°13.689 2°55.905 11.677988 0.000176 0.007786  
2001-12-17 07:56:47 51°13.689 2°55.905 11.677988 0.000176 0.007786  
2001-12-17 07:56:52 51°13.689 2°55.905 11.673599 0.000176 0.007785  
2001-12-17 07:56:56 51°13.688 2°55.905 11.672639 0.000176 0.007784  
2001-12-17 07:57:01 51°13.688 2°55.905 11.676982 0.000176 0.007784  
2001-12-17 07:57:07 51°13.688 2°55.905 11.676479 0.000176 0.007783  
2001-12-17 07:57:11 51°13.688 2°55.905 11.669895 0.000176 0.007783  
2001-12-17 07:57:16 51°13.688 2°55.905 11.669895 0.000176 0.007783  
2001-12-17 07:57:22 51°13.688 2°55.905 11.66738 0.000176 0.007782  
2001-12-17 07:57:27 51°13.688 2°55.905 11.663631 0.000176 0.007782  
2001-12-17 07:57:32 51°13.688 2°55.905 11.661024 0.000176 0.007781  
2001-12-17 07:57:36 51°13.688 2°55.905 11.661253 0.000176 0.00778  
2001-12-17 07:57:41 51°13.688 2°55.905 11.668752 0.000176 0.00778  
2001-12-17 07:57:46 51°13.688 2°55.905 11.668752 0.000176 0.00778  
2001-12-17 07:57:52 51°13.688 2°55.905 11.669804 0.000176 0.007779  
2001-12-17 07:57:57 51°13.688 2°55.905 11.671175 0.000176 0.007778  
2001-12-17 07:58:01 51°13.688 2°55.905 11.679268 0.000176 0.007778  
2001-12-17 07:58:07 51°13.688 2°55.905 11.678856 0.000176 0.007777  
2001-12-17 07:58:12 51°13.688 2°55.905 11.677394 0.000176 0.007776  
2001-12-17 07:58:17 51°13.688 2°55.905 11.677394 0.000176 0.007776  
2001-12-17 07:58:22 51°13.688 2°55.905 11.675062 0.000176 0.007776  
2001-12-17 07:58:27 51°13.688 2°55.905 11.672136 0.000176 0.007775  
2001-12-17 07:58:32 51°13.688 2°55.905 11.670535 0.000176 0.007775  
2001-12-17 07:58:37 51°13.688 2°55.905 11.668569 0.000176 0.007774  
2001-12-17 07:58:41 51°13.688 2°55.905 11.669118 0.000176 0.007773  
2001-12-17 07:58:47 51°13.688 2°55.905 11.669118 0.000176 0.007773  
2001-12-17 07:58:52 51°13.688 2°55.905 11.66578 0.000176 0.007773  
2001-12-17 07:58:56 51°13.688 2°55.905 11.666512 0.000176 0.007772  
2001-12-17 07:59:02 51°13.688 2°55.905 11.666649 0.000176 0.007772  
2001-12-17 07:59:07 51°13.688 2°55.905 11.671175 0.000176 0.007771  
2001-12-17 07:59:12 51°13.688 2°55.905 11.670307 0.000176 0.00777  
2001-12-17 07:59:17 51°13.688 2°55.905 11.670307 0.000176 0.00777  
2001-12-17 07:59:21 51°13.688 2°55.905 11.671998 0.000176 0.00777  
2001-12-17 07:59:26 51°13.688 2°55.905 11.674788 0.000176 0.00777  
2001-12-17 07:59:32 51°13.688 2°55.905 11.675382 0.000176 0.007769  
2001-12-17 07:59:37 51°13.688 2°55.905 11.675976 0.000176 0.007769  
2001-12-17 07:59:42 51°13.688 2°55.905 11.674879 0.000176 0.007768  
2001-12-17 07:59:47 51°13.688 2°55.905 11.674879 0.000176 0.007768  
2001-12-17 07:59:52 51°13.688 2°55.905 11.677485 0.000176 0.007767  
2001-12-17 07:59:57 51°13.688 2°55.905 11.682605 0.000176 0.007767  
2001-12-17 08:00:01 51°13.688 2°55.905 11.686857 0.000176 0.007766  
2001-12-17 08:00:07 51°13.688 2°55.905 11.68288 0.000176 0.007766  
2001-12-17 08:00:12 51°13.688 2°55.904 11.680731 0.000176 0.007765  
2001-12-17 08:00:17 51°13.688 2°55.905 11.680731 0.000176 0.007765  
2001-12-17 08:00:22 51°13.688 2°55.905 11.677759 0.000176 0.007765  
2001-12-17 08:00:27 51°13.688 2°55.904 11.675748 0.000176 0.007764  
2001-12-17 08:00:31 51°13.688 2°55.905 11.672136 0.000176 0.007763  
2001-12-17 08:00:36 51°13.688 2°55.904 11.676479 0.000176 0.007763  
2001-12-17 08:00:41 51°13.688 2°55.904 11.683565 0.000176 0.007762  
2001-12-17 08:00:47 51°13.688 2°55.904 11.683565 0.000176 0.007762  
2001-12-17 08:00:52 51°13.688 2°55.904 11.685622 0.000176 0.007762  
2001-12-17 08:00:57 51°13.688 2°55.904 11.685348 0.000176 0.007762  
2001-12-17 08:01:01 51°13.688 2°55.904 11.677165 0.000176 0.007761  
2001-12-17 08:01:07 51°13.688 2°55.904 11.675793 0.000176 0.00776  
2001-12-17 08:01:12 51°13.688 2°55.904 11.676845 0.000176 0.00776  
2001-12-17 08:01:17 51°13.688 2°55.904 11.676845 0.000176 0.00776  
2001-12-17 08:01:21 51°13.688 2°55.904 11.678034 0.000176 0.007759  
2001-12-17 08:01:27 51°13.688 2°55.904 11.678948 0.000176 0.007759  
2001-12-17 08:01:32 51°13.688 2°55.904 11.679405 0.000176 0.007758  
2001-12-17 08:01:37 51°13.688 2°55.904 11.679725 0.000176 0.007758  
2001-12-17 08:01:42 51°13.688 2°55.905 11.681508 0.000176 0.007757  
2001-12-17 08:01:47 51°13.688 2°55.904 11.681508 0.000176 0.007757  
2001-12-17 08:01:52 51°13.688 2°55.904 11.683337 0.000176 0.007757  
2001-12-17 08:01:57 51°13.688 2°55.904 11.681737 0.000176 0.007756  
2001-12-17 08:02:02 51°13.688 2°55.904 11.684251 0.000176 0.007755  
2001-12-17 08:02:07 51°13.688 2°55.905 11.688228 0.000176 0.007755  
2001-12-17 08:02:12 51°13.688 2°55.905 11.688319 0.000176 0.007754  
2001-12-17 08:02:17 51°13.688 2°55.905 11.688319 0.000176 0.007754  
2001-12-17 08:02:22 51°13.688 2°55.905 11.687999 0.000176 0.007754  
2001-12-17 08:02:27 51°13.688 2°55.905 11.687177 0.000176 0.007753  
2001-12-17 08:02:32 51°13.688 2°55.905 11.681645 0.000176 0.007753  
2001-12-17 08:02:36 51°13.688 2°55.905 11.679999 0.000176 0.007752  
2001-12-17 08:02:42 51°13.688 2°55.905 11.679634 0.000176 0.007752  
2001-12-17 08:02:47 51°13.688 2°55.905 11.679634 0.000176 0.007752  
2001-12-17 08:02:52 51°13.688 2°55.905 11.680594 0.000176 0.007751  
2001-12-17 08:02:57 51°13.688 2°55.905 11.680777 0.000176 0.00775  
2001-12-17 08:03:02 51°13.688 2°55.905 11.683382 0.000176 0.00775  
2001-12-17 08:03:07 51°13.688 2°55.905 11.682605 0.000176 0.007749  
2001-12-17 08:03:12 51°13.688 2°55.905 11.684617 0.000176 0.007748  
2001-12-17 08:03:17 51°13.688 2°55.905 11.684617 0.000176 0.007748  
2001-12-17 08:03:22 51°13.688 2°55.905 11.682011 0.000176 0.007748  
2001-12-17 08:03:27 51°13.688 2°55.905 11.682148 0.000176 0.007747  
2001-12-17 08:03:32 51°13.688 2°55.905 11.681737 0.000176 0.007747  
2001-12-17 08:03:37 51°13.688 2°55.905 11.683017 0.000176 0.007746  
2001-12-17 08:03:41 51°13.688 2°55.905 11.679405 0.000176 0.007746  
2001-12-17 08:03:47 51°13.688 2°55.905 11.679405 0.000176 0.007746  
2001-12-17 08:03:52 51°13.688 2°55.905 11.680228 0.000176 0.007745  
2001-12-17 08:03:57 51°13.688 2°55.905 11.678536 0.000176 0.007745  
2001-12-17 08:04:02 51°13.688 2°55.905 11.679497 0.000176 0.007744  
2001-12-17 08:04:07 51°13.688 2°55.905 11.681097 0.000176 0.007744  
2001-12-17 08:04:12 51°13.688 2°55.905 11.681462 0.000176 0.007743  
2001-12-17 08:04:17 51°13.689 2°55.905 11.681462 0.000176 0.007743  
2001-12-17 08:04:22 51°13.689 2°55.904 11.684617 0.000176 0.007742  
2001-12-17 08:04:27 51°13.689 2°55.904 11.68448 0.000176 0.007742  
2001-12-17 08:04:32 51°13.689 2°55.905 11.687679 0.000176 0.007741  
2001-12-17 08:04:37 51°13.689 2°55.905 11.686719 0.000176 0.00774  
2001-12-17 08:04:42 51°13.688 2°55.905 11.684205 0.000176 0.00774  
2001-12-17 08:04:47 51°13.688 2°55.905 11.684205 0.000176 0.00774  
2001-12-17 08:04:52 51°13.688 2°55.905 11.682148 0.000176 0.007739  
2001-12-17 08:04:57 51°13.688 2°55.905 11.684571 0.000176 0.007739  
2001-12-17 08:05:01 51°13.688 2°55.904 11.683565 0.000176 0.007738  
2001-12-17 08:05:07 51°13.689 2°55.904 11.680091 0.000176 0.007738  
2001-12-17 08:05:12 51°13.689 2°55.904 11.681508 0.000176 0.007737  
2001-12-17 08:05:17 51°13.689 2°55.905 11.681508 0.000176 0.007737  
2001-12-17 08:05:22 51°13.689 2°55.905 11.68544 0.000176 0.007737  
2001-12-17 08:05:27 51°13.689 2°55.905 11.688228 0.000176 0.007736  
2001-12-17 08:05:32 51°13.689 2°55.905 11.689828 0.000176 0.007736  
2001-12-17 08:05:37 51°13.689 2°55.904 11.691062 0.000176 0.007735  
2001-12-17 08:05:42 51°13.689 2°55.904 11.687359 0.000176 0.007734  
2001-12-17 08:05:47 51°13.689 2°55.905 11.687359 0.000176 0.007734  
2001-12-17 08:05:52 51°13.689 2°55.904 11.687862 0.000176 0.007734  
2001-12-17 08:05:57 51°13.689 2°55.904 11.686354 0.000176 0.007722  
2001-12-17 08:06:02 51°13.689 2°55.904 11.687085 0.000176 0.007735  
2001-12-17 08:06:07 51°13.689 2°55.904 11.686811 0.000176 0.007738  
2001-12-17 08:06:12 51°13.689 2°55.904 11.690239 0.000176 0.007734  
2001-12-17 08:06:17 51°13.689 2°55.904 11.690239 0.000176 0.007734  
2001-12-17 08:06:21 51°13.689 2°55.904 11.693165 0.000176 0.007732  
2001-12-17 08:06:26 51°13.689 2°55.904 11.69449 0.000176 0.007731  
2001-12-17 08:06:32 51°13.689 2°55.904 11.694856 0.000176 0.00773  
2001-12-17 08:06:37 51°13.689 2°55.904 11.694719 0.000176 0.007729  
2001-12-17 08:06:41 51°13.689 2°55.904 11.697644 0.000176 0.007728  
2001-12-17 08:06:47 51°13.689 2°55.904 11.697644 0.000176 0.007728  
2001-12-17 08:06:51 51°13.689 2°55.904 11.699106 0.000176 0.007727  
2001-12-17 08:06:57 51°13.689 2°55.904 11.698147 0.000176 0.007726  
2001-12-17 08:07:01 51°13.689 2°55.904 11.697552 0.000176 0.007725  
2001-12-17 08:07:07 51°13.689 2°55.904 11.698055 0.000176 0.007724  
2001-12-17 08:07:12 51°13.689 2°55.904 11.698786 0.000176 0.007724  
2001-12-17 08:07:17 51°13.689 2°55.904 11.698786 0.000176 0.007724  
2001-12-17 08:07:21 51°13.689 2°55.904 11.699518 0.000176 0.007723  
2001-12-17 08:07:27 51°13.689 2°55.904 11.701117 0.000176 0.007723  
2001-12-17 08:07:32 51°13.689 2°55.904 11.702991 0.000176 0.007722  
2001-12-17 08:07:37 51°13.689 2°55.904 11.705413 0.000176 0.007721  
2001-12-17 08:07:42 51°13.689 2°55.904 11.706601 0.000176 0.00772  
2001-12-17 08:07:47 51°13.689 2°55.904 11.706601 0.000176 0.00772  
2001-12-17 08:07:52 51°13.689 2°55.904 11.711034 0.000176 0.007719  
2001-12-17 08:07:57 51°13.689 2°55.904 11.710623 0.000176 0.007719  
2001-12-17 08:08:02 51°13.689 2°55.904 11.711171 0.000176 0.007718  
2001-12-17 08:08:07 51°13.689 2°55.904 11.71108 0.000176 0.007717  
2001-12-17 08:08:12 51°13.689 2°55.904 11.711308 0.000176 0.007716  
2001-12-17 08:08:17 51°13.689 2°55.904 11.711308 0.000176 0.007716  
2001-12-17 08:08:22 51°13.689 2°55.904 11.71309 0.000176 0.007716  
2001-12-17 08:08:27 51°13.689 2°55.904 11.711948 0.000176 0.007715  
2001-12-17 08:08:32 51°13.689 2°55.904 11.715283 0.000176 0.007714  
2001-12-17 08:08:37 51°13.689 2°55.904 11.714781 0.000176 0.007713  
2001-12-17 08:08:42 51°13.689 2°55.904 11.717568 0.000176 0.007712  
2001-12-17 08:08:46 51°13.689 2°55.904 11.717568 0.000176 0.007712  
2001-12-17 08:08:52 51°13.689 2°55.904 11.715923 0.000176 0.007711  
2001-12-17 08:08:57 51°13.689 2°55.904 11.720995 0.000176 0.00771  
2001-12-17 08:09:02 51°13.689 2°55.904 11.724604 0.000176 0.00771  
2001-12-17 08:09:07 51°13.689 2°55.904 11.727345 0.000176 0.007709  
2001-12-17 08:09:12 51°13.689 2°55.904 11.729081 0.000176 0.007709  
2001-12-17 08:09:16 51°13.689 2°55.904 11.729081 0.000176 0.007709  
2001-12-17 08:09:21 51°13.689 2°55.904 11.727985 0.000176 0.007707  
2001-12-17 08:09:27 51°13.689 2°55.904 11.729812 0.000176 0.007706  
2001-12-17 08:09:32 51°13.689 2°55.904 11.730452 0.000176 0.007706  
2001-12-17 08:09:37 51°13.689 2°55.904 11.731685 0.000176 0.007705  
2001-12-17 08:09:42 51°13.689 2°55.905 11.729629 0.000176 0.007704  
2001-12-17 08:09:47 51°13.689 2°55.904 11.729629 0.000176 0.007704  
2001-12-17 08:09:52 51°13.689 2°55.904 11.730177 0.000176 0.007703  
2001-12-17 08:09:57 51°13.689 2°55.904 11.73132 0.000176 0.007703  
2001-12-17 08:10:01 51°13.689 2°55.904 11.732233 0.000176 0.007702  
2001-12-17 08:10:07 51°13.689 2°55.905 11.733466 0.000176 0.007701  
2001-12-17 08:10:12 51°13.689 2°55.905 11.732736 0.000176 0.0077  
2001-12-17 08:10:17 51°13.689 2°55.904 11.732736 0.000176 0.0077  
2001-12-17 08:10:22 51°13.689 2°55.904 11.726706 0.000176 0.0077  
2001-12-17 08:10:26 51°13.689 2°55.904 11.710257 0.000176 0.007699  
2001-12-17 08:10:32 51°13.689 2°55.904 11.715283 0.000176 0.007698  
2001-12-17 08:10:37 51°13.689 2°55.904 11.716289 0.000176 0.007697  
2001-12-17 08:10:42 51°13.689 2°55.904 11.718025 0.000176 0.007696  
2001-12-17 08:10:47 51°13.689 2°55.904 11.718025 0.000176 0.007696  
2001-12-17 08:10:52 51°13.689 2°55.904 11.719807 0.000176 0.007696  
2001-12-17 08:10:56 51°13.689 2°55.904 11.71702 0.000176 0.007695  
2001-12-17 08:11:02 51°13.689 2°55.904 11.720766 0.000275 0.008023  
2001-12-17 08:11:07 51°13.689 2°55.904 11.716563 0.000176 0.007693  
2001-12-17 08:11:12 51°13.689 2°55.904 11.72136 0.000176 0.007693  
2001-12-17 08:11:17 51°13.689 2°55.903 11.72136 0.000176 0.007693  
2001-12-17 08:11:21 51°13.689 2°55.903 11.718619 0.000176 0.007692  
2001-12-17 08:11:27 51°13.689 2°55.903 11.710577 0.000176 0.007691  
2001-12-17 08:11:31 51°13.689 2°55.903 11.721634 0.000176 0.00769  
2001-12-17 08:11:36 51°13.689 2°55.903 11.712405 0.000176 0.007689  
2001-12-17 08:11:42 51°13.688 2°55.903 11.71044 0.000176 0.007689  
2001-12-17 08:11:47 51°13.688 2°55.903 11.71044 0.000176 0.007689  
2001-12-17 08:11:52 51°13.688 2°55.903 11.714095 0.000176 0.007688  
2001-12-17 08:11:57 51°13.688 2°55.903 11.712907 0.000176 0.007687  
2001-12-17 08:12:02 51°13.688 2°55.904 11.711719 0.000176 0.007687  
2001-12-17 08:12:06 51°13.688 2°55.904 11.717751 0.000176 0.007686  
2001-12-17 08:12:12 51°13.688 2°55.904 11.713821 0.000176 0.007685  
2001-12-17 08:12:17 51°13.688 2°55.904 11.713821 0.000176 0.007685  
2001-12-17 08:12:22 51°13.688 2°55.904 11.707332 0.000176 0.007684  
2001-12-17 08:12:27 51°13.688 2°55.904 11.708612 0.000176 0.007684  
2001-12-17 08:12:32 51°13.688 2°55.904 11.720309 0.000176 0.007683  
2001-12-17 08:12:37 51°13.688 2°55.905 11.71245 0.000176 0.007683  
2001-12-17 08:12:42 51°13.688 2°55.904 11.712679 0.000176 0.007681  
2001-12-17 08:12:47 51°13.688 2°55.904 11.712679 0.000176 0.007681  
2001-12-17 08:12:52 51°13.688 2°55.904 11.708109 0.000176 0.007681  
2001-12-17 08:12:57 51°13.688 2°55.904 11.700797 0.000176 0.00768  
2001-12-17 08:13:01 51°13.688 2°55.904 11.699792 0.000176 0.007679  
2001-12-17 08:13:07 51°13.688 2°55.904 11.691428 0.000176 0.007679  
2001-12-17 08:13:12 51°13.688 2°55.904 11.696273 0.000176 0.007678  
2001-12-17 08:13:17 51°13.688 2°55.904 11.696273 0.000176 0.007678  
2001-12-17 08:13:22 51°13.688 2°55.904 11.694947 0.000176 0.007677  
2001-12-17 08:13:27 51°13.688 2°55.904 11.699289 0.000176 0.007677  
2001-12-17 08:13:32 51°13.688 2°55.904 11.696912 0.000176 0.007676  
2001-12-17 08:13:37 51°13.688 2°55.904 11.696821 0.000176 0.007675  
2001-12-17 08:13:42 51°13.687 2°55.904 11.697324 0.000275 0.008004  
2001-12-17 08:13:47 51°13.687 2°55.904 11.697324 0.000275 0.008004  
2001-12-17 08:13:52 51°13.688 2°55.904 11.694947 0.000176 0.007674  
2001-12-17 08:13:57 51°13.688 2°55.904 11.693027 0.000176 0.007674  
2001-12-17 08:14:02 51°13.688 2°55.904 11.697324 0.000176 0.007673  
2001-12-17 08:14:07 51°13.688 2°55.904 11.693667 0.000176 0.007672  
2001-12-17 08:14:12 51°13.688 2°55.904 11.69257 0.000176 0.007671  
2001-12-17 08:14:17 51°13.688 2°55.904 11.69257 0.000176 0.007671  
2001-12-17 08:14:22 51°13.688 2°55.904 11.689325 0.000176 0.007671  
2001-12-17 08:14:27 51°13.688 2°55.904 11.680457 0.000176 0.007671  
2001-12-17 08:14:32 51°13.688 2°55.904 11.678948 0.000176 0.00767  
2001-12-17 08:14:37 51°13.687 2°55.904 11.682102 0.000176 0.007669  
2001-12-17 08:14:41 51°13.688 2°55.904 11.684068 0.000176 0.007669  
2001-12-17 08:14:47 51°13.688 2°55.904 11.684068 0.000176 0.007669  
2001-12-17 08:14:52 51°13.687 2°55.904 11.688228 0.000176 0.007668  
2001-12-17 08:14:57 51°13.687 2°55.904 11.691428 0.000176 0.007667  
2001-12-17 08:15:02 51°13.687 2°55.904 11.682834 0.000176 0.007667  
2001-12-17 08:15:07 51°13.687 2°55.904 11.687177 0.000176 0.007666  
2001-12-17 08:15:12 51°13.687 2°55.904 11.684845 0.000176 0.007666  
2001-12-17 08:15:17 51°13.687 2°55.904 11.684845 0.000176 0.007666  
2001-12-17 08:15:22 51°13.687 2°55.904 11.683748 0.000176 0.007665  
2001-12-17 08:15:27 51°13.687 2°55.904 11.692707 0.000176 0.007664  
2001-12-17 08:15:31 51°13.687 2°55.904 11.694399 0.000176 0.007664  
2001-12-17 08:15:36 51°13.687 2°55.904 11.701026 0.000176 0.007663  
2001-12-17 08:15:42 51°13.687 2°55.904 11.707241 0.000176 0.007662  
2001-12-17 08:15:47 51°13.687 2°55.904 11.707241 0.000176 0.007662  
2001-12-17 08:15:52 51°13.687 2°55.904 11.706007 0.000176 0.007662  
2001-12-17 08:15:57 51°13.687 2°55.904 11.699381 0.000176 0.007661  
2001-12-17 08:16:02 51°13.687 2°55.904 11.701026 0.000176 0.00766  
2001-12-17 08:16:06 51°13.687 2°55.904 11.700066 0.000176 0.00766  
2001-12-17 08:16:12 51°13.687 2°55.904 11.710166 0.000176 0.007659  
2001-12-17 08:16:17 51°13.687 2°55.904 11.710166 0.000176 0.007659  
2001-12-17 08:16:22 51°13.687 2°55.903 11.749544 0.000275 0.007988  
2001-12-17 08:16:27 51°13.687 2°55.903 11.751325 0.000176 0.007657  
2001-12-17 08:16:32 51°13.687 2°55.902 11.756211 0.000176 0.007657  
2001-12-17 08:16:37 51°13.688 2°55.9 11.758631 0.000176 0.007656  
2001-12-17 08:16:42 51°13.688 2°55.898 11.750731 0.000176 0.007656  
2001-12-17 08:16:47 51°13.689 2°55.896 11.750731 0.000176 0.007656  
2001-12-17 08:16:52 51°13.689 2°55.893 11.743104 0.000176 0.007655  
2001-12-17 08:16:57 51°13.69 2°55.89 11.734197 0.000176 0.007654  
2001-12-17 08:17:03 51°13.691 2°55.886 11.729127 0.000176 0.007654  
2001-12-17 08:17:08 51°13.692 2°55.881 11.74251 0.000176 0.007653  
2001-12-17 08:17:13 51°13.693 2°55.877 11.752421 0.000176 0.007653  
2001-12-17 08:17:18 51°13.694 2°55.872 11.752421 0.000176 0.007653  
2001-12-17 08:17:22 51°13.694 2°55.867 11.749224 0.000176 0.007652  
2001-12-17 08:17:28 51°13.695 2°55.86 11.756713 0.000176 0.007651  
2001-12-17 08:17:33 51°13.696 2°55.854 11.74516 0.000176 0.007651  
2001-12-17 08:17:38 51°13.697 2°55.848 11.742236 0.000176 0.00765  
2001-12-17 08:17:43 51°13.698 2°55.842 11.745342 0.000176 0.00765  
2001-12-17 08:17:48 51°13.699 2°55.835 11.745342 0.000176 0.00765  
2001-12-17 08:17:52 51°13.7 2°55.83 11.742099 0.000176 0.007649  
2001-12-17 08:17:57 51°13.7 2°55.824 11.758677 0.000176 0.007649  
2001-12-17 08:18:02 51°13.701 2°55.818 11.749955 0.000176 0.007648  
2001-12-17 08:18:07 51°13.701 2°55.812 11.758814 0.000176 0.007648  
2001-12-17 08:18:12 51°13.702 2°55.805 11.757764 0.000176 0.007647  
2001-12-17 08:18:17 51°13.703 2°55.799 11.757764 0.000176 0.007647  
2001-12-17 08:18:22 51°13.703 2°55.793 11.753197 0.000176 0.007646  
2001-12-17 08:18:27 51°13.704 2°55.787 11.7558 0.000176 0.007645  
2001-12-17 08:18:32 51°13.704 2°55.782 11.7479 0.000176 0.007645  
2001-12-17 08:18:37 51°13.704 2°55.776 11.744292 0.000176 0.007644  
2001-12-17 08:18:42 51°13.704 2°55.771 11.748082 0.000176 0.007644  
2001-12-17 08:18:47 51°13.704 2°55.766 11.748082 0.000176 0.007644  
2001-12-17 08:18:52 51°13.704 2°55.761 11.748722 0.000176 0.007643  
2001-12-17 08:18:57 51°13.704 2°55.756 11.743652 0.000176 0.007642  
2001-12-17 08:19:02 51°13.704 2°55.751 11.740135 0.000176 0.007642  
2001-12-17 08:19:07 51°13.703 2°55.747 11.740272 0.000176 0.007641  
2001-12-17 08:19:12 51°13.703 2°55.742 11.741277 0.000176 0.007641  
2001-12-17 08:19:17 51°13.703 2°55.738 11.741277 0.000176 0.007641  
2001-12-17 08:19:22 51°13.702 2°55.734 11.730086 0.000176 0.00764  
2001-12-17 08:19:27 51°13.702 2°55.731 11.750457 0.000176 0.007639  
2001-12-17 08:19:32 51°13.701 2°55.727 11.748859 0.000176 0.007639  
2001-12-17 08:19:37 51°13.701 2°55.724 11.744155 0.000176 0.007638  
2001-12-17 08:19:42 51°13.701 2°55.722 11.721771 0.000176 0.007638  
2001-12-17 08:19:47 51°13.701 2°55.721 11.721771 0.000176 0.007638  
2001-12-17 08:19:51 51°13.702 2°55.722 11.652747 0.000176 0.007638  
2001-12-17 08:19:57 51°13.705 2°55.723 11.562586 0.000176 0.007637  
2001-12-17 08:20:02 51°13.708 2°55.725 11.523233 0.000176 0.007637  
2001-12-17 08:20:07 51°13.712 2°55.727 -999 0.000176 0.007637  
2001-12-17 08:20:12 51°13.718 2°55.727 44.507297 0.000176 0.007636  
2001-12-17 08:20:17 51°13.725 2°55.727 44.507297 0.000176 0.007636  
2001-12-17 08:20:22 51°13.732 2°55.724 42.625084 0.000176 0.007635  
2001-12-17 08:20:27 51°13.74 2°55.72 43.174882 0.000176 0.007635  
2001-12-17 08:20:32 51°13.747 2°55.715 43.507087 0.000176 0.007634  
2001-12-17 08:20:37 51°13.755 2°55.709 14.927592 0.000176 0.007632  
2001-12-17 08:20:42 51°13.762 2°55.702 13.585263 0.000176 0.007585  
2001-12-17 08:20:47 51°13.769 2°55.696 13.585263 0.000176 0.007585  
2001-12-17 08:20:52 51°13.776 2°55.689 13.057129 2.656042 19.321962  
2001-12-17 08:20:57 51°13.783 2°55.682 12.04359 2.987163 21.599093  
2001-12-17 08:21:02 51°13.79 2°55.676 11.738308 3.221569 24.695515  
2001-12-17 08:21:07 51°13.797 2°55.669 11.907005 2.96309 24.483053  
2001-12-17 08:21:12 51°13.803 2°55.662 11.548936 2.712821 23.2669  
2001-12-17 08:21:16 51°13.809 2°55.657 11.548936 2.712821 23.2669  
2001-12-17 08:21:22 51°13.817 2°55.649 11.15321 2.563585 22.805071  
2001-12-17 08:21:27 51°13.824 2°55.643 11.66107 2.432092 22.235432  
2001-12-17 08:21:32 51°13.831 2°55.637 10.807923 2.279248 21.126772  
2001-12-17 08:21:37 51°13.838 2°55.631 11.546783 2.182316 20.510745  
2001-12-17 08:21:42 51°13.845 2°55.625 11.122235 2.039761 19.329531  
2001-12-17 08:21:47 51°13.852 2°55.619 11.122235 2.039761 19.329531  
2001-12-17 08:21:52 51°13.859 2°55.613 11.626306 2.012597 19.198816  
2001-12-17 08:21:57 51°13.866 2°55.608 10.929001 1.908748 18.231658  
2001-12-17 08:22:02 51°13.873 2°55.602 11.822026 1.847054 17.664451  
2001-12-17 08:22:07 51°13.88 2°55.597 11.505588 1.812021 17.375158  
2001-12-17 08:22:12 51°13.887 2°55.591 10.857289 1.785174 17.138986  
2001-12-17 08:22:16 51°13.893 2°55.587 10.857289 1.785174 17.138986  
2001-12-17 08:22:22 51°13.902 2°55.582 10.870017 1.786672 17.188603  
2001-12-17 08:22:27 51°13.909 2°55.577 10.297932 1.773798 17.078459  
2001-12-17 08:22:31 51°13.915 2°55.573 10.688339 1.812721 17.495327  
2001-12-17 08:22:37 51°13.923 2°55.567 11.164315 1.831286 17.719745  
2001-12-17 08:22:42 51°13.93 2°55.561 10.095177 1.863228 18.072971  
2001-12-17 08:22:47 51°13.937 2°55.556 10.095177 1.863228 18.072971  
2001-12-17 08:22:52 51°13.944 2°55.55 11.073207 1.913943 18.602928  
2001-12-17 08:22:57 51°13.952 2°55.545 9.821331 1.951087 18.9949  
2001-12-17 08:23:02 51°13.959 2°55.54 11.156897 1.988733 19.396504  
2001-12-17 08:23:07 51°13.966 2°55.535 6.114074 2.075927 20.333383  
2001-12-17 08:23:12 51°13.973 2°55.53 6.350397 2.130572 20.913369  
2001-12-17 08:23:17 51°13.98 2°55.526 6.350397 2.130572 20.913369  
2001-12-17 08:23:22 51°13.988 2°55.521 6.239208 2.174534 21.379406  
2001-12-17 08:23:27 51°13.995 2°55.516 6.581343 2.201313 21.663552  
2001-12-17 08:23:32 51°14.002 2°55.511 6.001471 2.222698 21.893848  
2001-12-17 08:23:37 51°14.009 2°55.506 6.380818 2.247482 22.161082  
2001-12-17 08:23:42 51°14.016 2°55.501 6.178762 2.274167 22.442256  
2001-12-17 08:23:47 51°14.024 2°55.496 6.178762 2.274167 22.442256  
2001-12-17 08:23:52 51°14.031 2°55.491 6.175726 2.289859 22.607159  
2001-12-17 08:23:57 51°14.038 2°55.485 6.177617 2.305651 22.777927  
2001-12-17 08:24:02 51°14.045 2°55.48 5.995281 2.313648 22.862679  
2001-12-17 08:24:07 51°14.052 2°55.475 5.910614 2.316347 22.890114  
2001-12-17 08:24:12 51°14.059 2°55.47 5.880966 2.319645 22.928774  
2001-12-17 08:24:17 51°14.066 2°55.465 5.880966 2.319645 22.928774  
2001-12-17 08:24:22 51°14.073 2°55.459 6.127624 2.325543 23.00272  
2001-12-17 08:24:26 51°14.079 2°55.455 6.234882 2.329442 23.054482  
2001-12-17 08:24:32 51°14.087 2°55.448 5.982851 2.324344 23.004574  
2001-12-17 08:24:37 51°14.094 2°55.442 6.050616 2.33334 23.11227  
2001-12-17 08:24:42 51°14.101 2°55.437 6.192399 2.33284 23.111627  
2001-12-17 08:24:46 51°14.107 2°55.433 6.192399 2.33284 23.111627  
2001-12-17 08:24:52 51°14.115 2°55.426 5.939649 2.330741 23.100793  
2001-12-17 08:24:57 51°14.122 2°55.421 5.755823 2.330542 23.102807  
2001-12-17 08:25:02 51°14.129 2°55.415 6.046177 2.323344 23.034211  
2001-12-17 08:25:06 51°14.134 2°55.41 6.27515 2.312249 22.925043  
2001-12-17 08:25:12 51°14.142 2°55.404 6.046825 2.298655 22.787536  
2001-12-17 08:25:17 51°14.149 2°55.398 6.046825 2.298655 22.787536  
2001-12-17 08:25:21 51°14.154 2°55.393 6.014896 2.280664 22.604063  
2001-12-17 08:25:27 51°14.162 2°55.386 5.596934 2.264074 22.435772  
2001-12-17 08:25:31 51°14.168 2°55.381 5.674246 2.249382 22.284591  
2001-12-17 08:25:36 51°14.175 2°55.375 5.969668 2.238289 22.169545  
2001-12-17 08:25:42 51°14.182 2°55.367 6.132855 2.229095 22.072799  
2001-12-17 08:25:47 51°14.189 2°55.361 6.132855 2.229095 22.072799  
2001-12-17 08:25:52 51°14.196 2°55.354 6.2125 2.234791 22.133942  
2001-12-17 08:25:57 51°14.202 2°55.347 6.372284 2.243686 22.232076  
2001-12-17 08:26:02 51°14.209 2°55.339 6.124984 2.251281 22.316182  
2001-12-17 08:26:07 51°14.216 2°55.33 6.085069 2.250981 22.315247  
2001-12-17 08:26:11 51°14.221 2°55.323 5.909515 2.263074 22.445895  
2001-12-17 08:26:16 51°14.228 2°55.313 5.909515 2.263074 22.445895  
2001-12-17 08:26:22 51°14.236 2°55.3 6.123241 2.266672 22.486123  
2001-12-17 08:26:27 51°14.243 2°55.289 6.21628 2.266772 22.488377  
2001-12-17 08:26:32 51°14.251 2°55.277 5.919961 2.264174 22.459579  
2001-12-17 08:26:37 51°14.258 2°55.264 5.701885 2.258877 22.405572  
2001-12-17 08:26:42 51°14.266 2°55.251 5.821229 2.25268 22.33832  
2001-12-17 08:26:47 51°14.273 2°55.238 5.821229 2.25268 22.33832  
2001-12-17 08:26:51 51°14.28 2°55.227 5.487179 2.241187 22.219413  
2001-12-17 08:26:57 51°14.289 2°55.21 6.135993 2.226197 22.064894  
2001-12-17 08:27:02 51°14.297 2°55.196 5.649004 2.208809 21.883841  
2001-12-17 08:27:07 51°14.304 2°55.18 5.833942 2.190523 21.694243  
2001-12-17 08:27:12 51°14.312 2°55.164 5.876015 2.173936 21.52141  
2001-12-17 08:27:17 51°14.32 2°55.148 5.876015 2.173936 21.52141  
2001-12-17 08:27:22 51°14.328 2°55.131 5.918361 2.160347 21.378283  
2001-12-17 08:27:27 51°14.337 2°55.114 5.952487 2.154852 21.322178  
2001-12-17 08:27:32 51°14.346 2°55.096 5.700681 2.153253 21.308771  
2001-12-17 08:27:37 51°14.355 2°55.077 5.988642 2.15745 21.354723  
2001-12-17 08:27:42 51°14.365 2°55.058 5.944994 2.16834 21.468679  
2001-12-17 08:27:47 51°14.375 2°55.037 5.944994 2.16834 21.468679  
2001-12-17 08:27:52 51°14.385 2°55.016 6.287523 2.180331 21.596255  
2001-12-17 08:27:57 51°14.395 2°54.995 6.226427 2.183428 21.628679  
2001-12-17 08:28:01 51°14.403 2°54.977 6.206778 2.187225 21.671502  
2001-12-17 08:28:07 51°14.412 2°54.948 6.265358 2.18083 21.60504  
2001-12-17 08:28:12 51°14.418 2°54.922 6.054755 2.184228 21.642407  
2001-12-17 08:28:17 51°14.422 2°54.895 6.054755 2.184228 21.642407  
2001-12-17 08:28:22 51°14.425 2°54.868 5.838445 2.190523 21.711186  
2001-12-17 08:28:27 51°14.426 2°54.84 6.078589 2.214405 21.965624  
2001-12-17 08:28:31 51°14.426 2°54.817 6.2024 2.25368 22.384635  
2001-12-17 08:28:37 51°14.425 2°54.782 6.118458 2.292359 22.796  
2001-12-17 08:28:42 51°14.424 2°54.753 6.272565 2.329243 23.184095  
2001-12-17 08:28:47 51°14.423 2°54.724 6.272565 2.329243 23.184095  
2001-12-17 08:28:52 51°14.421 2°54.695 6.018439 2.382526 23.749149  
2001-12-17 08:28:57 51°14.42 2°54.666 6.36613 2.429816 24.250703  
2001-12-17 08:29:02 51°14.417 2°54.637 5.993235 2.481912 24.795285  
2001-12-17 08:29:07 51°14.412 2°54.608 6.085369 2.527714 25.273103  
2001-12-17 08:29:12 51°14.405 2°54.58 6.958236 2.554217 25.537796  
2001-12-17 08:29:17 51°14.398 2°54.552 6.958236 2.554217 25.537796  
2001-12-17 08:29:22 51°14.39 2°54.525 6.190707 2.591925 25.925446  
2001-12-17 08:29:27 51°14.382 2°54.499 6.358537 2.617131 26.17764  
2001-12-17 08:29:32 51°14.373 2°54.472 6.565464 2.635237 26.352983  
2001-12-17 08:29:37 51°14.364 2°54.446 6.403191 2.664547 26.655541  
2001-12-17 08:29:42 51°14.355 2°54.419 6.771474 2.681754 26.830423  
2001-12-17 08:29:47 51°14.347 2°54.392 6.771474 2.681754 26.830423  
2001-12-17 08:29:52 51°14.339 2°54.365 6.207972 2.699863 27.01659  
2001-12-17 08:29:57 51°14.331 2°54.337 6.543595 2.711568 27.135035  
2001-12-17 08:30:02 51°14.323 2°54.309 6.191901 2.716671 27.184239  
2001-12-17 08:30:07 51°14.316 2°54.282 6.251042 2.724875 27.269697  
2001-12-17 08:30:12 51°14.308 2°54.254 6.266899 2.729578 27.317988  
2001-12-17 08:30:17 51°14.3 2°54.227 6.266899 2.729578 27.317988  
2001-12-17 08:30:22 51°14.292 2°54.199 6.360175 2.73338 27.357062  
2001-12-17 08:30:27 51°14.284 2°54.172 6.293138 2.740083 27.425288  
2001-12-17 08:30:32 51°14.276 2°54.144 6.547257 2.750289 27.532106  
2001-12-17 08:30:37 51°14.268 2°54.116 6.635625 2.757093 27.598598  
2001-12-17 08:30:41 51°14.262 2°54.094 6.522955 2.774704 27.781369  
2001-12-17 08:30:47 51°14.252 2°54.061 6.522955 2.774704 27.781369  
2001-12-17 08:30:51 51°14.245 2°54.039 6.326069 2.786812 27.905605  
2001-12-17 08:30:57 51°14.235 2°54.006 6.70013 2.796418 27.999366  
2001-12-17 08:31:02 51°14.226 2°53.979 6.666453 2.806825 28.103371  
2001-12-17 08:31:07 51°14.217 2°53.952 6.266949 2.819734 28.237134  
2001-12-17 08:31:12 51°14.209 2°53.924 6.559577 2.822836 28.261948  
2001-12-17 08:31:17 51°14.2 2°53.897 6.559577 2.822836 28.261948  
2001-12-17 08:31:22 51°14.191 2°53.87 6.363103 2.834745 28.385375  
2001-12-17 08:31:27 51°14.183 2°53.842 6.776454 2.842751 28.466456  
2001-12-17 08:31:32 51°14.174 2°53.815 6.463274 2.846954 28.507013  
2001-12-17 08:31:37 51°14.166 2°53.787 6.474323 2.85486 28.58844  
2001-12-17 08:31:41 51°14.159 2°53.765 6.409985 2.858764 28.624936  
2001-12-17 08:31:47 51°14.149 2°53.732 6.409985 2.858764 28.624936  
2001-12-17 08:31:52 51°14.14 2°53.705 6.314548 2.860064 28.633434  
2001-12-17 08:31:57 51°14.131 2°53.677 6.64279 2.863968 28.669181  
2001-12-17 08:32:02 51°14.122 2°53.65 6.444541 2.869472 28.724063  
2001-12-17 08:32:07 51°14.112 2°53.623 6.523747 2.870873 28.730706  
2001-12-17 08:32:12 51°14.103 2°53.595 6.68443 2.873876 28.757957  
2001-12-17 08:32:17 51°14.094 2°53.568 6.68443 2.873876 28.757957  
2001-12-17 08:32:22 51°14.085 2°53.54 6.280914 2.875277 28.767533  
2001-12-17 08:32:27 51°14.075 2°53.513 6.43666 2.875877 28.769744  
2001-12-17 08:32:32 51°14.066 2°53.485 6.769008 2.881182 28.826059  
2001-12-17 08:32:37 51°14.057 2°53.457 6.309779 2.882883 28.842621  
2001-12-17 08:32:42 51°14.048 2°53.429 6.266253 2.883183 28.844459  
2001-12-17 08:32:47 51°14.039 2°53.401 6.266253 2.883183 28.844459  
2001-12-17 08:32:52 51°14.03 2°53.373 6.383001 2.884885 28.863233  
2001-12-17 08:32:57 51°14.02 2°53.346 6.29746 2.884484 28.858078  
2001-12-17 08:33:02 51°14.011 2°53.318 6.087661 2.884284 28.856607  
2001-12-17 08:33:07 51°14.002 2°53.29 6.411969 2.881382 28.826057  
2001-12-17 08:33:12 51°13.993 2°53.262 6.279871 2.881182 28.829007  
2001-12-17 08:33:17 51°13.983 2°53.234 6.279871 2.881182 28.829007  
2001-12-17 08:33:22 51°13.974 2°53.206 6.445186 2.880181 28.820173  
2001-12-17 08:33:27 51°13.964 2°53.178 6.528152 2.880081 28.822754  
2001-12-17 08:33:32 51°13.955 2°53.15 6.602507 2.87918 28.816497  
2001-12-17 08:33:37 51°13.945 2°53.121 6.498148 2.877178 28.798824  
2001-12-17 08:33:42 51°13.936 2°53.093 6.277535 2.87968 28.828657  
2001-12-17 08:33:46 51°13.928 2°53.071 6.277535 2.87968 28.828657  
2001-12-17 08:33:52 51°13.917 2°53.036 6.365386 2.875477 28.787409  
2001-12-17 08:33:57 51°13.907 2°53.008 6.733394 2.87848 28.822772  
2001-12-17 08:34:02 51°13.898 2°52.979 6.330588 2.877479 28.813195  
2001-12-17 08:34:07 51°13.889 2°52.951 6.490472 2.873976 28.775989  
2001-12-17 08:34:12 51°13.879 2°52.923 6.696033 2.875877 28.796986  
2001-12-17 08:34:17 51°13.869 2°52.894 6.696033 2.875877 28.796986  
2001-12-17 08:34:21 51°13.862 2°52.871 6.4082 2.875277 28.791092  
2001-12-17 08:34:27 51°13.85 2°52.837 6.572538 2.875677 28.79625  
2001-12-17 08:34:32 51°13.841 2°52.808 6.568532 2.87888 28.830144  
2001-12-17 08:34:37 51°13.831 2°52.78 6.602952 2.87858 28.82609  
2001-12-17 08:34:42 51°13.822 2°52.751 6.518499 2.879781 28.837878  
2001-12-17 08:34:47 51°13.812 2°52.722 6.518499 2.879781 28.837878  
2001-12-17 08:34:52 51°13.803 2°52.694 6.514984 2.879881 28.838245  
2001-12-17 08:34:57 51°13.793 2°52.665 6.799082 2.880181 28.841561  
2001-12-17 08:35:02 51°13.784 2°52.636 6.82924 2.880681 28.848564  
2001-12-17 08:35:07 51°13.774 2°52.607 6.459409 2.880982 28.853357  
2001-12-17 08:35:12 51°13.764 2°52.578 6.571599 2.881082 28.856678  
2001-12-17 08:35:17 51°13.755 2°52.549 6.571599 2.881082 28.856678  
2001-12-17 08:35:22 51°13.745 2°52.521 6.575605 2.87928 28.838993  
2001-12-17 08:35:27 51°13.735 2°52.492 6.408497 2.87948 28.844896  
2001-12-17 08:35:32 51°13.726 2°52.463 6.742028 2.876878 28.81984  
2001-12-17 08:35:37 51°13.716 2°52.434 6.448011 2.876278 28.816895  
2001-12-17 08:35:42 51°13.707 2°52.404 6.610615 2.872475 28.781513  
2001-12-17 08:35:47 51°13.697 2°52.375 6.610615 2.872475 28.781513  
2001-12-17 08:35:52 51°13.687 2°52.346 6.657216 2.874376 28.805476  
2001-12-17 08:35:57 51°13.678 2°52.317 6.456931 2.871274 28.774877  
2001-12-17 08:36:01 51°13.67 2°52.294 6.413605 2.871474 28.777826  
2001-12-17 08:36:07 51°13.658 2°52.259 6.339624 2.871274 28.776352  
2001-12-17 08:36:12 51°13.648 2°52.23 6.300689 2.873876 28.807325  
2001-12-17 08:36:17 51°13.638 2°52.201 6.300689 2.873876 28.807325  
2001-12-17 08:36:22 51°13.629 2°52.171 6.54206 2.873976 28.808432  
2001-12-17 08:36:27 51°13.619 2°52.142 6.224637 2.874677 28.815438  
2001-12-17 08:36:32 51°13.609 2°52.113 6.586338 2.874076 28.807324  
2001-12-17 08:36:37 51°13.6 2°52.083 6.344936 2.876078 28.82871  
2001-12-17 08:36:42 51°13.59 2°52.054 6.427637 2.874877 28.813959  
2001-12-17 08:36:47 51°13.58 2°52.025 6.427637 2.874877 28.813959  
2001-12-17 08:36:52 51°13.571 2°51.996 6.219364 2.876478 28.829442  
2001-12-17 08:36:57 51°13.561 2°51.966 7.06744 2.877179 28.835708  
2001-12-17 08:37:01 51°13.553 2°51.943 6.38186 2.876979 28.832758  
2001-12-17 08:37:07 51°13.542 2°51.908 6.465157 2.875077 28.811004  
2001-12-17 08:37:11 51°13.533 2°51.885 6.662601 2.877879 28.841974  
2001-12-17 08:37:17 51°13.522 2°51.849 6.662601 2.877879 28.841974  
2001-12-17 08:37:22 51°13.513 2°51.819 6.417275 2.877879 28.841974  
2001-12-17 08:37:27 51°13.503 2°51.79 6.374269 2.878079 28.845664  
2001-12-17 08:37:31 51°13.495 2°51.767 6.826678 2.87838 28.848983  
2001-12-17 08:37:37 51°13.484 2°51.731 6.457873 2.875477 28.816166  
2001-12-17 08:37:42 51°13.475 2°51.702 6.574814 2.877579 28.840133  
2001-12-17 08:37:47 51°13.465 2°51.672 6.574814 2.877579 28.840133  
2001-12-17 08:37:52 51°13.455 2°51.643 6.66181 2.876878 28.833867  
2001-12-17 08:37:57 51°13.445 2°51.614 6.650745 2.875878 28.825021  
2001-12-17 08:38:02 51°13.436 2°51.584 6.294529 2.874877 28.815435  
2001-12-17 08:38:07 51°13.426 2°51.555 6.374963 2.874176 28.806954  
2001-12-17 08:38:12 51°13.417 2°51.525 6.250743 2.873276 28.797736  
2001-12-17 08:38:17 51°13.407 2°51.495 6.250743 2.873276 28.797736  
2001-12-17 08:38:22 51°13.397 2°51.466 6.503546 2.872875 28.794049  
2001-12-17 08:38:27 51°13.388 2°51.437 6.420151 2.872775 28.795894  
2001-12-17 08:38:32 51°13.378 2°51.407 6.538349 2.872375 28.790732  
2001-12-17 08:38:37 51°13.368 2°51.378 6.737785 2.872175 28.789257  
2001-12-17 08:38:42 51°13.359 2°51.348 6.324579 2.871474 28.781513  
2001-12-17 08:38:47 51°13.349 2°51.319 6.324579 2.871474 28.781513  
2001-12-17 08:38:52 51°13.339 2°51.29 6.399123 2.871274 28.778564  
2001-12-17 08:38:57 51°13.33 2°51.261 6.386226 2.873075 28.796999  
2001-12-17 08:39:02 51°13.32 2°51.231 6.469765 2.872475 28.789625  
2001-12-17 08:39:07 51°13.31 2°51.202 6.740203 2.872875 28.794787  
2001-12-17 08:39:12 51°13.3 2°51.173 6.771868 2.871874 28.785201  
2001-12-17 08:39:17 51°13.29 2°51.143 6.771868 2.871874 28.785201  
2001-12-17 08:39:21 51°13.283 2°51.12 6.282604 2.867371 28.74132  
2001-12-17 08:39:27 51°13.271 2°51.085 6.362061 2.868171 28.755328  
2001-12-17 08:39:32 51°13.262 2°51.055 6.723723 2.86647 28.741678  
2001-12-17 08:39:37 51°13.252 2°51.026 6.647879 2.864469 28.726177  
2001-12-17 08:39:42 51°13.242 2°50.997 6.333368 2.862467 28.709936  
2001-12-17 08:39:47 51°13.232 2°50.968 6.333368 2.862467 28.709936  
2001-12-17 08:39:52 51°13.222 2°50.939 6.345085 2.860966 28.699224  
2001-12-17 08:39:57 51°13.213 2°50.909 6.558291 2.859164 28.684452  
2001-12-17 08:40:02 51°13.203 2°50.88 6.280815 2.856562 28.655672  
2001-12-17 08:40:07 51°13.193 2°50.851 6.772707 2.857163 28.666727  
2001-12-17 08:40:12 51°13.184 2°50.822 6.290206 2.856462 28.658242  
2001-12-17 08:40:17 51°13.174 2°50.793 6.290206 2.856462 28.658242  
2001-12-17 08:40:22 51°13.164 2°50.763 6.493691 2.858564 28.67781  
2001-12-17 08:40:27 51°13.154 2°50.734 6.493691 2.860165 28.688161  
2001-12-17 08:40:32 51°13.145 2°50.705 6.899997 2.861666 28.698873  
2001-12-17 08:40:37 51°13.135 2°50.676 6.618129 2.863167 28.70811  
2001-12-17 08:40:42 51°13.125 2°50.646 6.293684 2.864569 28.719182  
2001-12-17 08:40:47 51°13.115 2°50.617 6.293684 2.864569 28.719182  
2001-12-17 08:40:52 51°13.106 2°50.588 6.696724 2.86597 28.730989  
2001-12-17 08:40:57 51°13.097 2°50.558 6.532954 2.867071 28.740948  
2001-12-17 08:41:02 51°13.087 2°50.529 6.81914 2.868271 28.751275  
2001-12-17 08:41:07 51°13.077 2°50.5 6.123091 2.868472 28.753488  
2001-12-17 08:41:12 51°13.068 2°50.47 6.492701 2.869072 28.759388  
2001-12-17 08:41:17 51°13.058 2°50.441 6.492701 2.869072 28.759388  
2001-12-17 08:41:21 51°13.05 2°50.417 6.407654 2.867271 28.73874  
2001-12-17 08:41:27 51°13.038 2°50.382 6.523549 2.869472 28.763813  
2001-12-17 08:41:32 51°13.028 2°50.353 6.318074 2.869272 28.761601  
2001-12-17 08:41:37 51°13.019 2°50.324 6.397983 2.867871 28.746851  
2001-12-17 08:41:42 51°13.009 2°50.295 6.561754 2.869072 28.7616  
2001-12-17 08:41:47 51°12.999 2°50.265 6.561754 2.869072 28.7616  
2001-12-17 08:41:52 51°12.989 2°50.236 6.512806 2.86647 28.732837  
2001-12-17 08:41:57 51°12.98 2°50.206 6.31276 2.868372 28.75533  
2001-12-17 08:42:02 51°12.97 2°50.177 6.188019 2.867971 28.753115  
2001-12-17 08:42:07 51°12.96 2°50.147 6.150335 2.867671 28.752007  
2001-12-17 08:42:12 51°12.951 2°50.118 6.517162 2.867071 28.74758  
2001-12-17 08:42:17 51°12.942 2°50.088 6.517162 2.867071 28.74758  
2001-12-17 08:42:22 51°12.931 2°50.059 6.641802 2.865069 28.726924  
2001-12-17 08:42:27 51°12.923 2°50.029 6.478088 2.865269 28.731347  
2001-12-17 08:42:32 51°12.912 2°50 6.399074 2.86567 28.737247  
2001-12-17 08:42:37 51°12.903 2°49.971 6.473679 2.86627 28.743886  
2001-12-17 08:42:42 51°12.893 2°49.941 6.554283 2.86637 28.744256  
2001-12-17 08:42:47 51°12.884 2°49.911 6.554283 2.86637 28.744256  
2001-12-17 08:42:52 51°12.874 2°49.882 6.433091 2.865569 28.734666  
2001-12-17 08:42:56 51°12.866 2°49.858 6.311716 2.86647 28.744626  
2001-12-17 08:43:02 51°12.854 2°49.823 6.636564 2.86637 28.743519  
2001-12-17 08:43:07 51°12.844 2°49.793 6.475314 2.86647 28.745363  
2001-12-17 08:43:12 51°12.834 2°49.764 6.472193 2.86637 28.744993  
2001-12-17 08:43:17 51°12.825 2°49.734 6.472193 2.86637 28.744993  
2001-12-17 08:43:21 51°12.817 2°49.711 6.67001 2.86637 28.747205  
2001-12-17 08:43:27 51°12.806 2°49.675 6.914955 2.866971 28.753845  
2001-12-17 08:43:32 51°12.796 2°49.646 6.708917 2.867371 28.758273  
2001-12-17 08:43:37 51°12.786 2°49.616 6.501268 2.867271 28.757166  
2001-12-17 08:43:42 51°12.776 2°49.587 6.704227 2.866971 28.753845  
2001-12-17 08:43:47 51°12.767 2°49.557 6.704227 2.866971 28.753845  
2001-12-17 08:43:52 51°12.757 2°49.528 6.333617 2.867271 28.758641  
2001-12-17 08:43:57 51°12.747 2°49.498 6.824461 2.867271 28.760116  
2001-12-17 08:44:02 51°12.737 2°49.469 6.790259 2.867471 28.763068  
2001-12-17 08:44:07 51°12.728 2°49.44 6.353325 2.867671 28.767495  
2001-12-17 08:44:12 51°12.718 2°49.41 6.363947 2.868072 28.775614  
2001-12-17 08:44:17 51°12.708 2°49.381 6.363947 2.868072 28.775614  
2001-12-17 08:44:22 51°12.699 2°49.351 6.737588 2.868372 28.779674  
2001-12-17 08:44:27 51°12.689 2°49.322 6.707337 2.868472 28.782259  
2001-12-17 08:44:32 51°12.679 2°49.292 7.038672 2.869273 28.790379  
2001-12-17 08:44:36 51°12.671 2°49.269 6.601568 2.870073 28.796282  
2001-12-17 08:44:42 51°12.66 2°49.233 6.608242 2.871274 28.805875  
2001-12-17 08:44:47 51°12.65 2°49.204 6.608242 2.871274 28.805875  
2001-12-17 08:44:52 51°12.64 2°49.175 6.614768 2.872175 28.809929  
2001-12-17 08:44:57 51°12.63 2°49.145 6.575754 2.873276 28.812501  
2001-12-17 08:45:02 51°12.621 2°49.115 6.740548 2.874377 28.818026  
2001-12-17 08:45:07 51°12.611 2°49.086 6.821702 2.875878 28.828714  
2001-12-17 08:45:12 51°12.601 2°49.056 6.320954 2.876979 28.835712  
2001-12-17 08:45:17 51°12.591 2°49.027 6.320954 2.876979 28.835712  
2001-12-17 08:45:22 51°12.581 2°48.998 6.331382 2.877979 28.839387  
2001-12-17 08:45:27 51°12.571 2°48.968 6.655784 2.87888 28.84417  
2001-12-17 08:45:32 51°12.562 2°48.938 6.53236 2.879681 28.849323  
2001-12-17 08:45:37 51°12.552 2°48.909 6.728115 2.880281 28.852264  
2001-12-17 08:45:42 51°12.543 2°48.879 6.560616 2.880782 28.856315  
2001-12-17 08:45:47 51°12.534 2°48.849 6.560616 2.880782 28.856315  
2001-12-17 08:45:52 51°12.525 2°48.819 6.634044 2.880982 28.857049  
2001-12-17 08:45:57 51°12.516 2°48.788 6.424117 2.880982 28.858527  
2001-12-17 08:46:01 51°12.509 2°48.764 6.214191 2.880481 28.853737  
2001-12-17 08:46:07 51°12.498 2°48.728 6.208669 2.87878 28.836418  
2001-12-17 08:46:12 51°12.488 2°48.699 6.448011 2.879481 28.84785  
2001-12-17 08:46:17 51°12.48 2°48.668 6.448011 2.879481 28.84785  
2001-12-17 08:46:21 51°12.472 2°48.644 6.486063 2.874777 28.800309  
2001-12-17 08:46:27 51°12.461 2°48.608 6.52835 2.875878 28.8169  
2001-12-17 08:46:32 51°12.451 2°48.578 6.610714 2.875878 28.821329  
2001-12-17 08:46:37 51°12.442 2°48.548 6.622775 2.874877 28.816912  
2001-12-17 08:46:42 51°12.433 2°48.517 6.377395 2.873176 28.803272  
2001-12-17 08:46:47 51°12.424 2°48.487 6.377395 2.873176 28.803272  
2001-12-17 08:46:52 51°12.415 2°48.457 6.336894 2.872075 28.794053  
2001-12-17 08:46:57 51°12.405 2°48.427 6.888332 2.869773 28.773031  
2001-12-17 08:47:02 51°12.396 2°48.397 6.528548 2.868972 28.765654  
2001-12-17 08:47:07 51°12.386 2°48.366 6.916234 2.869473 28.768974  
2001-12-17 08:47:12 51°12.377 2°48.336 6.536765 2.870373 28.77672  
2001-12-17 08:47:17 51°12.368 2°48.306 6.536765 2.870373 28.77672  
2001-12-17 08:47:22 51°12.358 2°48.276 6.034105 2.870473 28.775613  
2001-12-17 08:47:27 51°12.349 2°48.245 6.112828 2.870974 28.780408  
2001-12-17 08:47:32 51°12.34 2°48.215 6.480317 2.872975 28.805488  
2001-12-17 08:47:37 51°12.33 2°48.185 6.526816 2.870073 28.779302  
2001-12-17 08:47:42 51°12.322 2°48.154 6.696872 2.869172 28.775982  
2001-12-17 08:47:47 51°12.312 2°48.123 6.696872 2.869172 28.775982  
2001-12-17 08:47:51 51°12.305 2°48.099 6.422878 2.867771 28.76934  
2001-12-17 08:47:57 51°12.293 2°48.063 6.430562 2.863468 28.733534  
2001-12-17 08:48:01 51°12.286 2°48.039 6.316832 2.864469 28.749772  
2001-12-17 08:48:07 51°12.275 2°48.003 6.241098 2.864069 28.747556  
2001-12-17 08:48:12 51°12.266 2°47.973 6.572736 2.863368 28.739065  
2001-12-17 08:48:17 51°12.256 2°47.943 6.572736 2.863368 28.739065  
2001-12-17 08:48:22 51°12.247 2°47.913 6.661662 2.863068 28.732792  
2001-12-17 08:48:27 51°12.237 2°47.883 6.503695 2.864068 28.737965  
2001-12-17 08:48:32 51°12.228 2°47.853 6.548741 2.86567 28.74978  
2001-12-17 08:48:37 51°12.218 2°47.823 6.717061 2.867571 28.76565  
2001-12-17 08:48:42 51°12.209 2°47.793 6.641802 2.869573 28.781148  
2001-12-17 08:48:47 51°12.2 2°47.762 6.641802 2.869573 28.781148  
2001-12-17 08:48:52 51°12.191 2°47.733 6.444095 2.870874 28.791108  
2001-12-17 08:48:57 51°12.181 2°47.703 6.610269 2.871774 28.795901  
2001-12-17 08:49:02 51°12.172 2°47.673 6.370696 2.872975 28.80475  
2001-12-17 08:49:07 51°12.163 2°47.643 6.576792 2.873876 28.80954  
2001-12-17 08:49:12 51°12.153 2°47.613 6.538151 2.875077 28.818386  
2001-12-17 08:49:17 51°12.144 2°47.583 6.538151 2.875077 28.818386  
2001-12-17 08:49:22 51°12.135 2°47.553 6.499684 2.876278 28.826492  
2001-12-17 08:49:27 51°12.126 2°47.523 6.943927 2.877179 28.832754  
2001-12-17 08:49:31 51°12.119 2°47.499 6.582876 2.87828 28.83975  
2001-12-17 08:49:37 51°12.107 2°47.463 6.904671 2.87928 28.847855  
2001-12-17 08:49:42 51°12.098 2°47.433 6.905065 2.879881 28.851535  
2001-12-17 08:49:47 51°12.089 2°47.403 6.905065 2.879881 28.851535  
2001-12-17 08:49:52 51°12.08 2°47.373 6.744643 2.880381 28.854847  
2001-12-17 08:49:57 51°12.072 2°47.342 6.827072 2.880681 28.856687  
2001-12-17 08:50:02 51°12.063 2°47.312 6.583519 2.880982 28.858527  
2001-12-17 08:50:07 51°12.055 2°47.282 6.463373 2.881082 28.859632  
2001-12-17 08:50:12 51°12.047 2°47.251 6.059991 2.881082 28.858894  
2001-12-17 08:50:17 51°12.039 2°47.22 6.059991 2.881082 28.858894  
2001-12-17 08:50:22 51°12.031 2°47.189 6.797406 2.881482 28.862577  
2001-12-17 08:50:27 51°12.023 2°47.159 6.437106 2.881382 28.860733  
2001-12-17 08:50:32 51°12.016 2°47.128 6.359381 2.881582 28.862205  
2001-12-17 08:50:37 51°12.008 2°47.097 6.525776 2.881882 28.864783  
2001-12-17 08:50:42 51°12 2°47.066 6.531221 2.882383 28.868833  
2001-12-17 08:50:47 51°11.993 2°47.036 6.531221 2.882383 28.868833  
2001-12-17 08:50:52 51°11.985 2°47.005 6.292591 2.883184 28.874722  
2001-12-17 08:50:57 51°11.977 2°46.974 6.824116 2.884184 28.88282  
2001-12-17 08:51:02 51°11.968 2°46.944 6.460995 2.884985 28.889446  
2001-12-17 08:51:07 51°11.961 2°46.913 6.705659 2.886086 28.897908  
2001-12-17 08:51:12 51°11.952 2°46.883 6.706646 2.886887 28.903053  
2001-12-17 08:51:17 51°11.944 2°46.851 6.706646 2.886887 28.903053  
2001-12-17 08:51:22 51°11.936 2°46.821 6.86805 2.887487 28.906727  
2001-12-17 08:51:27 51°11.928 2°46.79 6.662107 2.888488 28.914081  
2001-12-17 08:51:32 51°11.92 2°46.759 6.699192 2.888988 28.915169  
2001-12-17 08:51:37 51°11.912 2°46.728 6.087811 2.889489 28.919215  
2001-12-17 08:51:42 51°11.903 2°46.698 6.531766 2.889789 28.919572  
2001-12-17 08:51:47 51°11.896 2°46.666 6.531766 2.889789 28.919572  
2001-12-17 08:51:52 51°11.888 2°46.636 6.52444 2.889989 28.921042  
2001-12-17 08:51:57 51°11.88 2°46.605 6.401901 2.889889 28.919937  
2001-12-17 08:52:02 51°11.872 2°46.574 6.440923 2.889689 28.918467  
2001-12-17 08:52:06 51°11.866 2°46.549 6.520776 2.889389 28.916631  
2001-12-17 08:52:12 51°11.856 2°46.512 6.764521 2.888788 28.912959  
2001-12-17 08:52:17 51°11.848 2°46.481 6.764521 2.888788 28.912959  
2001-12-17 08:52:22 51°11.84 2°46.45 6.521272 2.887887 28.905233  
2001-12-17 08:52:27 51°11.832 2°46.42 6.682652 2.887387 28.902665  
2001-12-17 08:52:32 51°11.824 2°46.389 6.565118 2.886686 28.897147  
2001-12-17 08:52:37 51°11.816 2°46.358 6.886511 2.886186 28.892361  
2001-12-17 08:52:41 51°11.81 2°46.333 6.969396 2.885686 28.889053  
2001-12-17 08:52:47 51°11.8 2°46.296 6.969396 2.885686 28.889053  
2001-12-17 08:52:52 51°11.792 2°46.265 6.650942 2.885385 28.885737  
2001-12-17 08:52:57 51°11.783 2°46.235 6.854558 2.885085 28.883161  
2001-12-17 08:53:02 51°11.776 2°46.204 6.533053 2.884685 28.878002  
2001-12-17 08:53:07 51°11.768 2°46.173 6.620354 2.884785 28.879107  
2001-12-17 08:53:12 51°11.76 2°46.142 6.704178 2.884685 28.877264  
2001-12-17 08:53:17 51°11.752 2°46.111 6.704178 2.884685 28.877264  
2001-12-17 08:53:22 51°11.744 2°46.08 6.94796 2.884785 28.876891  
2001-12-17 08:53:27 51°11.736 2°46.05 6.466148 2.885185 28.879834  
2001-12-17 08:53:32 51°11.727 2°46.019 6.8745 2.885685 28.88462  
2001-12-17 08:53:37 51°11.72 2°45.988 6.608539 2.885986 28.885718  
2001-12-17 08:53:42 51°11.711 2°45.958 6.391732 2.886486 28.887549  
2001-12-17 08:53:47 51°11.703 2°45.927 6.391732 2.886486 28.887549  
2001-12-17 08:53:52 51°11.695 2°45.896 6.798934 2.887087 28.8927  
2001-12-17 08:53:56 51°11.688 2°45.871 6.962612 2.887487 28.893426  
2001-12-17 08:54:02 51°11.679 2°45.834 6.518895 2.888288 28.900046  
2001-12-17 08:54:07 51°11.671 2°45.803 6.887692 2.888888 28.903718  
2001-12-17 08:54:12 51°11.663 2°45.773 6.888135 2.889489 28.908129  
2001-12-17 08:54:17 51°11.655 2°45.741 6.888135 2.889489 28.908129  
2001-12-17 08:54:22 51°11.647 2°45.711 6.566701 2.889889 28.911069  
2001-12-17 08:54:27 51°11.639 2°45.68 6.894829 2.890289 28.911792  
2001-12-17 08:54:32 51°11.631 2°45.649 7.379871 2.890589 28.913627  
2001-12-17 08:54:37 51°11.623 2°45.618 7.061256 2.890589 28.913627  
2001-12-17 08:54:42 51°11.614 2°45.588 6.783159 2.89119 28.918775  
2001-12-17 08:54:47 51°11.607 2°45.557 6.783159 2.89119 28.918775  
2001-12-17 08:54:52 51°11.598 2°45.526 6.501813 2.89149 28.919132  
2001-12-17 08:54:57 51°11.591 2°45.495 6.98999 2.892091 28.924279  
2001-12-17 08:55:02 51°11.582 2°45.464 6.87002 2.892491 28.925001  
2001-12-17 08:55:07 51°11.574 2°45.433 6.749823 2.893292 28.932355  
2001-12-17 08:55:12 51°11.566 2°45.402 6.708867 2.893792 28.93418  
2001-12-17 08:55:17 51°11.558 2°45.372 6.708867 2.893792 28.93418  
2001-12-17 08:55:22 51°11.55 2°45.341 6.912544 2.894693 28.942637  
2001-12-17 08:55:26 51°11.543 2°45.316 6.830324 2.895493 28.94925  
2001-12-17 08:55:32 51°11.534 2°45.279 6.415638 2.896094 28.953655  
2001-12-17 08:55:37 51°11.525 2°45.248 6.510676 2.896494 28.955852  
2001-12-17 08:55:42 51°11.518 2°45.217 6.63434 2.897195 28.963578  
2001-12-17 08:55:47 51°11.509 2°45.187 6.63434 2.897195 28.963578  
2001-12-17 08:55:52 51°11.501 2°45.155 6.677911 2.897495 28.96541  
2001-12-17 08:55:57 51°11.493 2°45.124 6.761216 2.897495 28.96541  
2001-12-17 08:56:02 51°11.485 2°45.093 6.602507 2.897896 28.969085  
2001-12-17 08:56:07 51°11.476 2°45.063 7.04805 2.898196 28.972396  
2001-12-17 08:56:12 51°11.469 2°45.031 6.602952 2.898496 28.973489  
2001-12-17 08:56:17 51°11.46 2°45.001 6.602952 2.898496 28.973489  
2001-12-17 08:56:22 51°11.452 2°44.97 6.482943 2.898896 28.977164  
2001-12-17 08:56:27 51°11.444 2°44.939 6.860369 2.899397 28.979723  
2001-12-17 08:56:32 51°11.436 2°44.908 6.608242 2.900197 28.987072  
2001-12-17 08:56:37 51°11.428 2°44.877 6.402992 2.901098 28.994784  
2001-12-17 08:56:42 51°11.42 2°44.847 6.608391 2.901899 29.002132  
2001-12-17 08:56:47 51°11.412 2°44.816 6.608391 2.901899 29.002132  
2001-12-17 08:56:52 51°11.404 2°44.785 6.526667 2.902499 29.008012  
2001-12-17 08:56:57 51°11.396 2°44.755 6.732802 2.80252 27.907018  
2001-12-17 08:57:02 51°11.387 2°44.724 6.45262 2.804422 27.927165  
2001-12-17 08:57:07 51°11.379 2°44.694 6.82047 2.904401 29.025276  
2001-12-17 08:57:12 51°11.371 2°44.663 6.779758 2.904902 29.030053  
2001-12-17 08:57:16 51°11.364 2°44.638 6.779758 2.904902 29.030053  
2001-12-17 08:57:22 51°11.355 2°44.601 6.860714 2.905202 29.033363  
2001-12-17 08:57:27 51°11.347 2°44.571 7.101495 2.906002 29.040709  
2001-12-17 08:57:32 51°11.339 2°44.54 6.736305 2.906403 29.043641  
2001-12-17 08:57:37 51°11.33 2°44.509 6.574764 2.907103 29.049883  
2001-12-17 08:57:42 51°11.322 2°44.478 6.820224 2.907804 29.055383  
2001-12-17 08:57:47 51°11.314 2°44.448 6.820224 2.907804 29.055383  
2001-12-17 08:57:52 51°11.305 2°44.417 7.024872 2.908405 29.060521  
2001-12-17 08:57:57 51°11.297 2°44.387 6.502556 2.908705 29.06309  
2001-12-17 08:58:02 51°11.289 2°44.356 6.949927 2.908905 29.066038  
2001-12-17 08:58:07 51°11.281 2°44.325 6.712569 2.909205 29.069348  
2001-12-17 08:58:12 51°11.273 2°44.295 6.757073 2.909305 29.06971  
2001-12-17 08:58:17 51°11.265 2°44.264 6.757073 2.909305 29.06971  
2001-12-17 08:58:22 51°11.256 2°44.234 6.354666 2.909606 29.072278  
2001-12-17 08:58:27 51°11.249 2°44.203 6.59781 2.910006 29.075209  
2001-12-17 08:58:32 51°11.24 2°44.173 6.761463 2.910206 29.07445  
2001-12-17 08:58:37 51°11.232 2°44.142 6.883164 2.911007 29.081051  
2001-12-17 08:58:42 51°11.223 2°44.112 6.68285 2.911607 29.085445  
2001-12-17 08:58:47 51°11.215 2°44.081 6.68285 2.911607 29.085445  
2001-12-17 08:58:52 51°11.207 2°44.05 6.805588 2.912408 29.090562  
2001-12-17 08:58:57 51°11.199 2°44.019 6.849091 2.913109 29.096058  
2001-12-17 08:59:02 51°11.191 2°43.989 6.929123 2.913609 29.100089  
2001-12-17 08:59:07 51°11.183 2°43.958 6.443451 2.914009 29.103018  
2001-12-17 08:59:12 51°11.175 2°43.927 6.930943 2.91441 29.105946  
2001-12-17 08:59:17 51°11.166 2°43.897 6.930943 2.91441 29.105946  
2001-12-17 08:59:21 51°11.16 2°43.872 6.411126 2.91461 29.108151  
2001-12-17 08:59:27 51°11.15 2°43.836 6.658155 2.91481 29.108874  
2001-12-17 08:59:32 51°11.142 2°43.805 7.183709 2.91521 29.111801  
2001-12-17 08:59:37 51°11.134 2°43.774 6.578177 2.915311 29.112162  
2001-12-17 08:59:42 51°11.126 2°43.744 6.864407 2.915511 29.113626  
2001-12-17 08:59:47 51°11.117 2°43.713 6.864407 2.915511 29.113626  
2001-12-17 08:59:52 51°11.109 2°43.683 6.786463 2.915611 29.113245  
2001-12-17 08:59:57 51°11.102 2°43.652 6.464513 2.916011 29.11543  
2001-12-17 09:00:02 51°11.093 2°43.621 6.830817 2.916411 29.115391  
2001-12-17 09:00:07 51°11.085 2°43.59 6.591629 2.916912 29.120161  
2001-12-17 09:00:12 51°11.076 2°43.559 6.836827 2.916812 29.116834  
2001-12-17 09:00:17 51°11.068 2°43.529 6.836827 2.916812 29.116834  
2001-12-17 09:00:21 51°11.062 2°43.504 6.516667 2.917212 29.11976  
2001-12-17 09:00:27 51°11.051 2°43.468 6.843033 2.917512 29.120101  
2001-12-17 09:00:32 51°11.043 2°43.437 6.603496 2.917212 29.116053  
2001-12-17 09:00:37 51°11.035 2°43.406 6.686849 2.918313 29.125211  
2001-12-17 09:00:42 51°11.026 2°43.376 6.852539 2.918613 29.126292  
2001-12-17 09:00:47 51°11.018 2°43.345 6.852539 2.918613 29.126292  
2001-12-17 09:00:52 51°11.01 2°43.315 6.65277 2.919114 29.128837  
2001-12-17 09:00:57 51°11.001 2°43.284 6.777637 2.919414 29.129918  
2001-12-17 09:01:02 51°10.993 2°43.253 6.740943 2.920015 29.134305  
2001-12-17 09:01:07 51°10.985 2°43.222 6.502803 2.919914 29.130237  
2001-12-17 09:01:12 51°10.976 2°43.191 6.831309 2.920815 29.137929  
2001-12-17 09:01:17 51°10.968 2°43.161 6.831309 2.920815 29.137929  
2001-12-17 09:01:22 51°10.96 2°43.13 6.754952 2.921316 29.141213  
2001-12-17 09:01:27 51°10.951 2°43.1 7.08128 2.921916 29.145598  
2001-12-17 09:01:32 51°10.943 2°43.069 6.721453 2.922817 29.151805  
2001-12-17 09:01:37 51°10.935 2°43.038 6.965709 2.923317 29.155087  
2001-12-17 09:01:42 51°10.927 2°43.007 6.785822 2.923918 29.157988  
2001-12-17 09:01:47 51°10.918 2°42.977 6.785822 2.923918 29.157988  
2001-12-17 09:01:52 51°10.91 2°42.946 7.051683 2.924518 29.160888  
2001-12-17 09:01:57 51°10.902 2°42.915 6.653561 2.925419 29.166349  
2001-12-17 09:02:02 51°10.893 2°42.884 6.899357 2.92582 29.168529  
2001-12-17 09:02:07 51°10.884 2°42.854 6.862437 2.92652 29.174011  
2001-12-17 09:02:12 51°10.876 2°42.823 6.623467 2.927221 29.177268  
2001-12-17 09:02:17 51°10.868 2°42.792 6.623467 2.927221 29.177268  
2001-12-17 09:02:22 51°10.861 2°42.761 6.667244 2.927621 29.18093  
2001-12-17 09:02:27 51°10.853 2°42.73 6.792723 2.928522 29.187129  
2001-12-17 09:02:32 51°10.845 2°42.699 7.198406 2.929022 29.189666  
2001-12-17 09:02:37 51°10.838 2°42.668 6.638392 2.930023 29.197705  
2001-12-17 09:02:42 51°10.83 2°42.636 6.924647 2.930524 29.199499  
2001-12-17 09:02:47 51°10.822 2°42.605 6.924647 2.930524 29.199499  
2001-12-17 09:02:52 51°10.814 2°42.574 6.603051 2.930824 29.199092  
2001-12-17 09:02:57 51°10.807 2°42.543 6.847614 2.932025 29.20933  
2001-12-17 09:03:02 51°10.799 2°42.512 7.093351 2.932526 29.212606  
2001-12-17 09:03:07 51°10.791 2°42.481 7.099483 2.933426 29.218799  
2001-12-17 09:03:12 51°10.783 2°42.449 6.983257 2.934227 29.224632  
2001-12-17 09:03:17 51°10.775 2°42.419 6.983257 2.934227 29.224632  
2001-12-17 09:03:22 51°10.768 2°42.387 6.865293 2.934828 29.228265  
2001-12-17 09:03:27 51°10.76 2°42.356 6.869281 2.935328 29.232281  
2001-12-17 09:03:32 51°10.752 2°42.325 6.793364 2.935829 29.234071  
2001-12-17 09:03:37 51°10.744 2°42.294 6.798047 2.936429 29.238444  
2001-12-17 09:03:40 51°10.74 2°42.276 6.721403 2.93713 29.241691  
2001-12-17 09:03:47 51°10.729 2°42.233 6.721403 2.93713 29.241691  
2001-12-17 09:03:52 51°10.721 2°42.202 6.96743 2.93793 29.246036  
2001-12-17 09:03:57 51°10.713 2°42.171 6.92991 2.938631 29.250765  
2001-12-17 09:04:02 51°10.705 2°42.14 6.650399 2.939031 29.251453  
2001-12-17 09:04:07 51°10.698 2°42.109 6.613631 2.939832 29.258022  
2001-12-17 09:04:12 51°10.69 2°42.078 6.737983 2.940733 29.263463  
2001-12-17 09:04:17 51°10.682 2°42.047 6.737983 2.940733 29.263463  
2001-12-17 09:04:22 51°10.674 2°42.017 7.262735 2.941634 29.269646  
2001-12-17 09:04:27 51°10.666 2°41.986 7.346356 2.942334 29.273629  
2001-12-17 09:04:32 51°10.659 2°41.955 7.310329 2.943335 29.280909  
2001-12-17 09:04:37 51°10.651 2°41.924 6.790604 2.943936 29.284533  
2001-12-17 09:04:42 51°10.643 2°41.893 7.075833 2.944236 29.286346  
2001-12-17 09:04:47 51°10.635 2°41.862 7.075833 2.944236 29.286346  
2001-12-17 09:04:52 51°10.628 2°41.831 6.554135 2.945037 29.291425  
2001-12-17 09:04:57 51°10.619 2°41.801 6.962317 2.945537 29.294692  
2001-12-17 09:05:02 51°10.612 2°41.77 6.926467 2.946138 29.299057  
2001-12-17 09:05:07 51°10.604 2°41.739 6.888726 2.947039 29.305975  
2001-12-17 09:05:12 51°10.596 2°41.708 7.190813 2.947339 29.305559  
2001-12-17 09:05:17 51°10.588 2°41.678 7.190813 2.947339 29.305559  
2001-12-17 09:05:22 51°10.58 2°41.647 6.895518 2.94794 29.310665  
2001-12-17 09:05:27 51°10.573 2°41.616 7.022416 2.94844 29.313187  
2001-12-17 09:05:32 51°10.565 2°41.585 7.066557 2.949141 29.317906  
2001-12-17 09:05:37 51°10.557 2°41.554 6.626729 2.949941 29.323722  
2001-12-17 09:05:42 51°10.549 2°41.523 7.076127 2.950642 29.327697  
2001-12-17 09:05:47 51°10.541 2°41.493 7.076127 2.950642 29.327697  
2001-12-17 09:05:52 51°10.533 2°41.462 7.040537 2.951042 29.329862  
2001-12-17 09:05:57 51°10.525 2°41.431 6.846481 2.951943 29.336032  
2001-12-17 09:06:01 51°10.519 2°41.406 6.768663 2.952644 29.340747  
2001-12-17 09:06:07 51°10.509 2°41.369 7.256472 2.953645 29.346527  
2001-12-17 09:06:12 51°10.501 2°41.339 7.180819 2.954245 29.350143  
2001-12-17 09:06:17 51°10.493 2°41.308 7.180819 2.954245 29.350143  
2001-12-17 09:06:22 51°10.485 2°41.277 6.73971 2.955246 29.357406  
2001-12-17 09:06:27 51°10.478 2°41.246 6.943239 2.956347 29.365023  
2001-12-17 09:06:32 51°10.47 2°41.215 6.865982 2.957348 29.371541  
2001-12-17 09:06:37 51°10.462 2°41.184 7.351193 2.958149 29.375863  
2001-12-17 09:06:42 51°10.454 2°41.153 6.792132 2.95915 29.383121  
2001-12-17 09:06:47 51°10.446 2°41.123 6.792132 2.95915 29.383121  
2001-12-17 09:06:52 51°10.438 2°41.092 6.836088 2.95965 29.384892  
2001-12-17 09:06:57 51°10.431 2°41.061 6.842196 2.960551 29.392537  
2001-12-17 09:07:02 51°10.422 2°41.031 6.765458 2.961052 29.39505  
2001-12-17 09:07:07 51°10.415 2°41 6.93355 2.961652 29.400146  
2001-12-17 09:07:12 51°10.406 2°40.969 7.059538 2.962353 29.404109  
2001-12-17 09:07:16 51°10.4 2°40.945 7.059538 2.962353 29.404109  
2001-12-17 09:07:21 51°10.392 2°40.914 7.385536 2.963354 29.412104  
2001-12-17 09:07:27 51°10.383 2°40.877 6.746863 2.963955 29.414226  
2001-12-17 09:07:32 51°10.375 2°40.847 7.073134 2.964855 29.421123  
2001-12-17 09:07:37 51°10.367 2°40.816 7.317565 2.965756 29.426532  
2001-12-17 09:07:42 51°10.359 2°40.786 7.079808 2.967158 29.436679  
2001-12-17 09:07:47 51°10.351 2°40.755 7.079808 2.967158 29.436679  
2001-12-17 09:07:52 51°10.343 2°40.725 7.244579 2.968359 29.444631  
2001-12-17 09:07:57 51°10.335 2°40.694 7.209034 2.96936 29.451875  
2001-12-17 09:08:02 51°10.328 2°40.664 7.050996 2.970361 29.459119  
2001-12-17 09:08:07 51°10.319 2°40.633 7.25564 2.971162 29.464912  
2001-12-17 09:08:12 51°10.312 2°40.602 6.978441 2.972062 29.471801  
2001-12-17 09:08:17 51°10.304 2°40.572 6.978441 2.972062 29.471801  
2001-12-17 09:08:22 51°10.297 2°40.541 7.18317 2.972663 29.473914  
2001-12-17 09:08:27 51°10.289 2°40.511 6.661959 2.973564 29.480801  
2001-12-17 09:08:32 51°10.281 2°40.48 7.229012 2.974565 29.487296  
2001-12-17 09:08:37 51°10.272 2°40.45 7.110864 2.975366 29.494573  
2001-12-17 09:08:42 51°10.265 2°40.42 6.911462 2.976467 29.502904  
2001-12-17 09:08:47 51°10.257 2°40.389 6.911462 2.976467 29.502904  
2001-12-17 09:08:52 51°10.249 2°40.359 6.954057 2.977167 29.506852  
2001-12-17 09:08:57 51°10.241 2°40.328 7.157394 2.977868 29.512288  
2001-12-17 09:09:02 51°10.234 2°40.298 6.716073 2.978769 29.518425  
2001-12-17 09:09:07 51°10.226 2°40.267 6.760082 2.97977 29.526401  
2001-12-17 09:09:12 51°10.218 2°40.237 6.843033 2.980371 29.530739  
2001-12-17 09:09:17 51°10.21 2°40.206 6.843033 2.980371 29.530739  
2001-12-17 09:09:22 51°10.202 2°40.176 6.96625 2.980971 29.535077  
2001-12-17 09:09:27 51°10.194 2°40.146 7.370248 2.981572 29.540158  
2001-12-17 09:09:32 51°10.186 2°40.115 7.172244 2.982072 29.544145  
2001-12-17 09:09:37 51°10.179 2°40.085 7.336777 2.982673 29.548482  
2001-12-17 09:09:42 51°10.171 2°40.054 6.93714 2.983274 29.552818  
2001-12-17 09:09:47 51°10.163 2°40.025 6.93714 2.983274 29.552818  
2001-12-17 09:09:52 51°10.155 2°39.994 7.22157 2.983574 29.553869  
2001-12-17 09:09:57 51°10.147 2°39.964 7.063563 2.984274 29.558554  
2001-12-17 09:10:02 51°10.139 2°39.933 6.985322 2.984775 29.562539  
2001-12-17 09:10:07 51°10.131 2°39.903 7.067342 2.985576 29.569063  
2001-12-17 09:10:12 51°10.123 2°39.873 7.108902 2.986277 29.574492  
2001-12-17 09:10:17 51°10.115 2°39.843 7.108902 2.986277 29.574492  
2001-12-17 09:10:21 51°10.109 2°39.818 6.909543 2.986677 29.575891  
2001-12-17 09:10:27 51°10.099 2°39.782 7.151562 2.987378 29.581319  
2001-12-17 09:10:32 51°10.092 2°39.752 7.03273 2.987978 29.584906  
2001-12-17 09:10:37 51°10.084 2°39.722 7.114199 2.988579 29.589238  
2001-12-17 09:10:41 51°10.078 2°39.697 7.115916 2.989079 29.592476  
2001-12-17 09:10:47 51°10.068 2°39.661 7.115916 2.989079 29.592476  
2001-12-17 09:10:52 51°10.06 2°39.631 7.278343 2.98948 29.594618  
2001-12-17 09:10:57 51°10.053 2°39.6 6.757024 2.99008 29.600439  
2001-12-17 09:11:02 51°10.044 2°39.57 7.000162 2.990481 29.604071  
2001-12-17 09:11:07 51°10.037 2°39.54 7.000506 2.990781 29.606609  
2001-12-17 09:11:12 51°10.029 2°39.51 6.841753 2.991081 29.607657  
2001-12-17 09:11:17 51°10.021 2°39.479 6.841753 2.991081 29.607657